Theta_e
323 324 324 326 329 330 330 333 335 334 334 335 334 331 331 332 333 335 335 331 328 323 321 322 320 321 323 324 321 320 319 321 322 327 328 320 318 320 320 320 320 320 320 320 319 319 320 319 319 318 317 317 317 316 316 315 315 314 314 313 313 313 312 312 312 312 312 312 312 312 312 311 312 312 312 312 312 312 312 313 313 313 313 314 315 314 314 313 313 312 312 311 311 310 309 308 307
325 325 326 327 329 331 332 333 334 333 333 334 333 331 332 332 334 335 333 330 326 320 318 318 318 318 319 319 319 321 320 318 318 320 320 318 319 319 319 319 319 319 319 319 318 319 319 318 317 316 316 316 316 315 315 314 313 312 312 312 312 312 312 312 311 311 311 311 311 311 311 312 312 311 311 312 312 312 312 313 313 313 313 314 314 313 313 312 311 311 311 310 309 308 308 307 307
324 324 324 327 330 329 332 333 333 333 335 337 335 331 332 335 332 330 327 323 319 317 316 316 317 317 319 321 320 322 320 317 318 318 318 318 319 318 318 318 318 318 318 318 318 318 318 317 316 316 315 314 314 314 313 312 311 311 311 311 311 311 311 311 311 311 311 310 311 311 311 311 312 311 311 311 311 311 312 312 313 312 312 313 312 311 311 310 310 309 309 309 308 308 307 306 306
324 324 324 327 331 330 331 334 333 332 335 336 336 335 333 332 327 323 321 319 317 316 317 317 317 316 319 321 320 321 319 317 318 318 318 318 318 317 318 318 317 317 317 318 317 317 317 316 315 315 314 313 313 312 312 311 311 311 310 310 310 310 310 310 311 311 311 310 310 310 310 310 310 311 311 311 310 309 310 311 311 311 311 311 310 310 310 309 309 308 308 308 307 307 306 305 305
325 325 326 327 332 332 332 334 332 331 333 333 335 335 331 328 324 321 318 317 315 316 318 318 318 316 317 317 317 320 317 317 317 316 316 316 316 317 317 317 317 317 317 317 317 316 315 315 315 314 314 313 312 311 311 311 311 310 310 310 309 310 310 310 310 311 311 310 310 309 309 309 310 309 309 309 309 308 309 309 309 310 310 310 309 308 308 308 308 307 307 307 306 306 305 305 304
326 327 328 327 331 331 332 335 333 331 328 328 334 333 328 325 323 319 316 315 314 316 317 318 319 317 316 314 313 315 313 315 316 315 315 315 315 316 316 316 316 317 317 316 316 316 315 315 314 313 313 312 311 311 310 310 310 309 309 309 309 310 310 310 310 310 310 310 309 308 308 308 308 308 307 308 307 307 308 308 308 308 308 308 308 307 307 307 306 306 306 306 305 305 305 304 304
326 327 329 329 331 331 335 337 335 334 323 319 325 326 326 324 320 318 316 315 314 315 316 317 317 317 317 314 314 312 311 313 314 314 314 314 314 315 316 316 316 316 316 316 315 315 314 314 313 313 312 311 311 311 310 310 310 309 309 309 310 310 310 310 310 309 309 308 307 307 306 306 306 306 306 307 306 306 306 307 307 307 307 307 307 306 305 305 305 305 305 305 304 304 304 304 303
326 328 330 332 335 334 336 337 334 332 320 314 315 316 320 321 318 318 318 317 316 315 317 317 317 319 316 315 316 311 310 311 312 313 314 314 314 315 316 315 316 316 315 315 315 314 314 313 313 312 311 310 310 310 310 309 309 310 310 310 310 310 309 309 308 307 306 306 306 305 305 305 305 305 305 305 305 305 305 305 305 305 305 305 305 305 304 304 304 304 304 304 304 304 303 303 300
325 327 329 332 336 335 335 336 334 325 316 312 311 310 311 316 318 319 318 316 315 315 316 316 315 318 315 314 315 311 309 310 311 312 312 313 314 315 316 315 316 315 315 314 314 313 313 313 312 311 310 310 309 309 309 309 309 309 310 309 309 309 308 307 306 305 305 304 304 304 304 303 303 304 304 304 304 304 304 304 304 304 304 304 304 304 303 303 303 303 303 303 303 303 303 302 298
325 327 330 332 334 336 335 336 334 323 314 310 309 308 308 312 317 318 317 315 315 316 316 314 314 316 315 314 313 311 309 309 311 312 311 312 313 314 315 315 315 315 315 314 313 313 312 312 311 310 310 309 308 308 308 308 308 308 307 307 306 306 305 305 304 304 303 303 303 303 303 303 303 303 303 303 303 303 303 302 302 303 303 303 303 303 302 302 302 301 299 299 300 300 300 298 295
328 327 328 331 332 335 335 336 334 321 313 309 308 307 306 311 316 316 316 315 315 316 315 315 316 315 314 313 312 310 308 309 310 310 310 311 310 313 314 314 314 314 314 313 312 312 311 310 309 309 309 308 306 307 307 307 306 305 305 305 304 304 303 303 303 303 302 302 302 302 302 302 302 302 302 302 302 302 302 302 302 302 302 302 302 302 302 301 301 297 293 293 294 294 295 293 292
329 328 328 332 332 334 334 337 336 320 311 310 308 307 307 311 316 315 315 315 314 316 315 315 317 314 314 313 310 308 307 308 308 308 309 308 307 309 311 313 313 313 313 312 311 311 310 309 308 308 307 307 305 306 306 305 304 304 303 303 303 303 302 301 301 301 300 300 300 300 300 301 301 301 301 301 301 301 301 301 300 301 301 301 301 301 300 299 296 293 291 292 292 292 292 292 292
328 328 330 331 330 332 332 334 331 319 315 313 309 307 308 312 315 315 314 314 315 317 314 313 315 314 314 313 309 307 307 306 306 306 306 305 305 307 308 310 312 312 312 312 311 310 309 308 308 306 306 305 304 304 304 303 303 302 302 302 302 301 299 297 296 296 296 296 295 295 296 297 298 299 299 299 299 299 299 300 299 300 299 299 299 299 298 295 292 291 292 292 291 291 292 291 291
326 326 329 330 326 327 329 329 326 323 323 315 309 307 308 311 314 315 314 315 315 313 310 308 312 316 314 311 308 307 307 305 304 304 304 304 304 305 306 307 308 310 311 311 311 310 309 308 307 306 305 303 302 302 302 302 302 302 301 300 299 297 295 294 294 294 294 293 292 292 292 292 293 294 294 294 294 295 295 296 297 296 295 294 294 295 294 291 290 291 291 291 291 291 291 290 290
324 324 326 328 325 325 326 326 324 325 321 310 307 307 307 307 308 312 312 313 311 306 307 308 309 314 314 312 311 308 306 304 303 303 304 304 304 305 306 305 305 306 308 309 309 309 309 308 306 305 304 303 302 301 300 300 300 299 298 297 295 294 294 294 293 293 293 292 292 292 292 291 291 290 290 290 291 291 291 291 292 291 290 290 290 290 291 290 290 290 290 290 290 290 290 289 289
320 321 323 326 324 324 324 324 323 323 316 308 307 306 307 305 305 308 306 307 308 304 307 309 307 309 311 312 313 309 305 303 302 301 302 303 302 304 305 305 305 304 304 305 305 306 306 306 305 304 303 303 302 300 299 298 297 296 295 294 294 294 293 293 293 292 292 291 291 291 291 290 290 290 290 290 290 290 290 290 290 290 290 290 290 290 290 290 290 289 289 289 289 289 288 289 289
318 320 322 323 323 322 321 321 319 317 312 307 307 306 309 307 304 305 304 306 309 307 305 305 306 308 310 312 312 307 303 301 301 299 300 301 301 302 302 303 304 303 302 301 302 303 302 302 302 302 302 302 300 299 298 296 295 294 294 294 293 293 293 292 292 291 291 291 291 290 290 290 290 290 290 290 290 290 290 290 290 290 290 290 290 289 289 289 288 288 288 288 287 287 287 287 287
317 321 322 322 322 318 313 313 311 312 312 308 307 308 310 308 305 304 305 307 308 308 305 304 306 308 311 311 308 304 302 301 300 300 300 301 301 302 302 302 302 301 300 300 300 300 300 299 299 299 300 299 298 298 297 295 294 294 293 293 293 292 292 292 291 291 290 290 290 290 290 290 290 290 290 290 290 290 289 289 289 289 289 289 288 288 288 287 287 287 286 286 286 286 286 286 286
317 320 321 320 317 311 306 306 306 308 311 309 307 308 309 308 306 305 307 308 307 308 307 306 306 306 308 307 305 303 301 301 301 302 302 302 302 303 303 303 302 301 300 299 298 298 298 298 298 297 297 296 296 296 296 295 294 293 293 293 292 292 291 291 290 290 290 289 290 290 289 290 290 290 290 290 290 290 289 289 289 288 288 287 287 287 286 286 286 285 285 285 285 285 285 285 284
315 317 320 316 310 307 304 304 305 306 309 309 307 307 308 307 306 306 308 309 308 310 309 307 307 306 306 306 305 303 302 301 301 303 303 303 303 303 303 302 302 301 300 299 298 297 297 297 296 296 295 295 295 295 294 293 293 292 292 292 291 291 291 290 290 290 289 289 290 290 290 290 290 290 290 290 289 289 288 288 288 287 287 286 286 285 285 285 285 284 284 284 285 284 284 284 284
314 314 315 310 306 308 304 302 303 304 307 308 306 306 306 304 304 306 308 311 311 311 311 308 309 307 305 304 304 303 303 302 302 303 303 303 303 303 302 301 301 301 300 299 297 297 297 296 296 295 295 295 295 294 294 293 292 291 291 291 291 291 290 290 289 289 289 290 290 290 290 290 289 289 289 288 288 287 287 286 286 285 285 285 285 284 284 284 284 284 284 283 284 283 283 283 283
312 309 307 305 305 307 303 301 302 302 305 307 305 306 305 302 303 305 308 312 309 307 308 308 308 307 305 305 304 304 304 303 303 303 303 303 302 301 301 301 300 299 298 298 297 296 296 296 295 295 295 295 295 294 293 293 292 291 291 291 290 290 290 289 289 289 289 290 290 290 289 289 288 288 288 287 286 286 285 285 284 284 284 284 284 283 283 283 283 283 283 283 283 283 282 282 282
311 307 303 303 303 304 302 301 301 301 305 306 305 305 304 303 305 305 307 308 302 299 302 306 308 307 306 305 304 304 304 304 304 303 304 302 301 301 300 300 298 298 298 298 297 296 295 295 295 295 295 295 294 294 293 293 292 291 291 290 290 289 289 289 289 289 289 290 289 289 288 287 287 286 286 286 285 285 284 284 283 283 283 283 283 282 283 282 282 282 282 282 282 282 282 282 282
311 308 303 302 302 302 301 300 300 301 304 304 303 304 303 305 306 304 304 302 297 296 299 301 304 306 305 304 303 303 303 303 302 302 303 302 301 300 299 298 298 298 298 298 296 295 295 294 295 295 295 295 294 293 293 293 291 291 291 290 289 289 289 288 289 289 289 289 289 288 287 287 286 286 285 285 284 284 283 283 283 282 282 282 282 282 282 282 282 282 281 281 282 281 282 281 281
310 308 302 301 301 300 300 300 300 300 301 301 302 303 303 302 301 301 303 300 296 297 298 298 300 301 303 302 302 303 302 302 302 301 300 300 301 300 298 298 298 298 298 297 296 295 294 294 295 295 294 295 294 293 293 292 291 291 290 290 289 289 288 288 289 289 288 288 288 288 287 286 285 285 285 284 283 283 283 282 282 282 282 281 281 281 281 281 281 281 280 281 281 281 281 281 281
307 305 302 301 301 300 300 300 300 300 301 301 302 303 301 299 299 302 303 299 296 296 297 298 298 299 300 300 301 302 301 302 302 300 298 297 298 297 297 297 297 298 298 296 295 295 294 293 293 293 293 293 292 292 292 291 291 290 290 289 289 289 288 289 289 288 288 288 288 288 287 286 285 284 284 283 283 283 282 282 282 281 281 281 281 280 280 280 280 280 280 281 281 281 281 281 280
304 303 302 301 301 300 300 300 300 301 301 300 302 303 301 299 300 304 302 297 295 296 296 297 298 299 299 299 301 301 300 301 300 298 297 297 296 296 297 296 296 297 297 296 295 294 293 293 292 292 292 291 291 292 291 291 290 290 290 289 289 289 289 289 288 288 287 287 287 287 286 285 285 284 283 283 282 282 282 282 281 281 281 281 280 280 280 280 280 280 280 280 280 280 281 281 280
302 303 303 301 301 301 301 301 301 301 301 300 301 302 301 299 300 304 301 296 296 297 297 296 298 300 300 299 300 300 299 299 299 298 298 297 296 297 297 297 297 297 296 295 295 293 292 292 292 291 290 291 291 291 290 290 289 289 289 289 288 289 289 288 288 288 287 287 287 286 286 285 284 283 283 282 282 282 281 281 281 280 280 280 280 280 280 280 279 279 280 279 279 280 280 280 280
303 304 305 303 302 302 301 301 301 301 301 299 300 302 303 301 301 303 299 296 296 297 298 297 298 299 299 299 298 299 299 298 297 297 298 298 297 298 298 297 297 297 295 295 294 293 292 291 291 290 290 290 290 290 290 289 289 289 289 288 288 289 288 288 288 287 287 287 286 285 285 284 283 282 282 282 281 281 281 281 281 280 280 279 279 279 279 280 280 279 279 280 279 280 280 280 280
304 305 307 305 305 305 302 301 301 301 301 299 300 305 307 305 302 300 298 296 297 298 298 298 299 299 299 299 298 298 298 298 297 296 297 298 298 298 298 297 297 296 295 294 293 292 291 291 290 289 289 289 290 289 289 289 288 289 288 288 288 289 288 288 287 286 286 286 285 284 283 283 282 282 281 281 281 281 281 281 280 280 279 279 279 279 279 280 279 279 279 280 279 280 280 280 279
306 306 307 307 309 307 303 302 301 301 301 299 302 305 307 306 302 299 297 297 297 298 300 300 300 300 299 299 298 297 298 298 298 296 297 297 297 297 296 296 296 295 295 294 292 292 291 290 290 289 289 289 289 288 288 288 288 288 288 287 288 288 287 287 286 285 285 284 284 283 283 282 282 281 281 281 281 281 281 281 280 280 279 279 279 278 279 279 279 279 279 279 279 279 280 279 279
307 307 308 309 309 307 304 301 301 302 301 300 302 305 307 306 302 298 297 297 297 299 301 301 301 300 299 299 298 297 298 299 298 297 297 297 297 296 295 295 294 294 294 293 292 292 290 289 290 289 289 289 288 288 288 288 288 288 287 287 288 288 286 286 285 285 284 283 283 283 282 282 281 281 280 280 280 281 281 281 280 280 278 279 279 278 278 279 278 278 279 278 278 279 279 279 278
307 307 308 309 308 308 306 302 301 302 301 301 303 304 306 306 301 297 297 297 297 299 301 301 301 301 300 299 298 298 298 298 297 297 297 297 296 294 294 294 294 293 293 292 292 291 290 289 290 289 289 288 288 288 287 287 287 287 287 287 287 287 286 285 284 284 284 283 282 282 282 282 281 281 280 280 280 280 281 281 280 279 278 278 279 278 278 278 278 277 278 278 278 278 278 278 278
309 308 308 309 308 308 308 305 301 301 301 302 303 303 304 305 302 298 297 297 297 298 300 301 301 301 300 300 300 299 300 299 298 297 297 297 295 294 294 293 293 292 292 292 291 291 290 289 289 289 288 288 287 287 287 287 287 286 286 286 286 286 285 284 284 284 284 283 282 281 282 281 281 281 280 280 280 280 280 280 279 278 277 278 278 278 278 278 277 277 277 277 277 277 277 277 277
310 309 308 309 309 307 308 307 303 301 303 304 304 304 304 305 304 301 298 297 298 298 300 301 300 300 300 300 300 300 300 300 300 300 298 296 294 294 293 293 292 292 291 291 290 290 290 289 288 288 288 287 287 287 287 286 286 285 285 285 285 285 284 284 284 284 283 282 281 281 282 281 281 281 280 280 279 279 279 279 278 278 277 278 278 278 278 278 277 276 276 277 277 277 277 277 276
309 309 308 309 309 308 308 307 303 302 304 305 305 305 305 305 306 305 301 298 298 299 300 300 300 300 299 299 299 299 299 300 301 301 299 297 295 294 293 292 292 291 290 290 290 289 289 289 288 288 288 287 287 286 286 286 285 285 285 284 284 284 284 283 283 283 282 281 281 282 282 281 281 281 280 280 279 279 279 279 278 278 277 277 278 278 278 278 277 276 276 276 276 276 277 276 276
307 309 309 309 308 308 307 305 303 302 304 305 305 306 306 305 305 306 304 300 298 299 300 300 300 300 299 299 299 299 299 299 300 300 299 297 295 294 293 292 291 291 290 289 289 289 289 288 288 288 288 287 287 286 286 286 285 285 285 285 285 284 284 283 283 283 282 281 281 282 282 281 281 281 281 280 280 279 279 279 278 277 277 277 277 278 277 276 276 275 275 276 276 276 276 276 276
308 308 308 307 308 308 306 305 302 302 303 305 305 305 305 305 305 305 305 302 300 299 300 300 300 300 300 299 299 299 299 299 299 298 298 296 295 294 293 292 291 291 290 289 289 289 288 288 288 287 287 287 287 286 286 286 286 286 286 285 285 285 284 284 283 283 282 281 282 283 283 282 282 282 281 281 280 279 279 278 278 278 277 277 277 277 276 275 275 275 275 275 276 276 276 276 275
308 307 307 306 307 306 305 305 302 302 303 303 304 304 303 303 303 303 304 304 302 301 301 301 301 300 300 299 299 299 299 299 298 298 297 296 295 294 293 292 291 291 291 290 289 289 288 288 288 287 287 287 287 286 286 286 286 286 286 286 286 286 285 284 284 283 282 282 283 284 283 282 282 282 281 281 280 279 279 278 278 278 277 277 277 277 276 275 275 275 275 275 275 276 276 276 275
307 306 305 305 306 305 304 305 303 302 302 302 303 302 302 303 303 304 304 304 304 304 302 302 301 301 301 300 300 299 299 299 298 297 297 296 295 294 293 292 292 291 291 290 289 289 288 288 288 287 287 287 287 286 286 286 286 286 286 286 286 286 285 284 284 283 281 282 282 283 283 282 282 281 281 280 280 279 279 278 278 278 277 276 277 276 276 276 275 275 275 274 275 275 276 276 275
306 305 304 304 304 303 303 303 303 303 303 303 302 302 303 305 305 304 305 304 305 305 303 302 302 301 301 301 301 300 300 299 299 298 297 296 296 295 294 293 292 291 291 291 290 289 288 288 288 287 287 287 287 286 286 286 286 286 286 285 285 285 284 284 283 282 281 281 282 283 283 282 281 281 280 280 280 279 278 278 278 277 277 276 276 276 276 276 275 275 275 274 274 274 275 275 275
304 304 303 303 302 302 301 302 302 302 303 303 302 301 302 304 304 304 305 304 304 304 302 302 301 301 301 300 300 300 300 300 299 299 298 297 297 296 295 293 293 292 291 291 290 289 289 288 288 287 287 287 287 286 286 286 286 286 285 284 284 284 284 284 283 283 282 282 282 283 282 282 281 281 280 280 279 278 278 278 277 277 277 276 276 276 276 275 275 275 274 274 274 274 274 274 275
302 303 301 301 301 301 301 302 302 301 302 304 302 300 301 303 303 305 306 304 304 304 302 302 302 301 301 300 300 300 299 299 299 299 299 298 298 297 295 294 293 293 292 291 291 290 289 288 288 288 287 287 287 286 286 285 286 286 285 284 285 285 285 285 284 284 283 283 283 282 281 281 281 280 280 279 278 278 278 277 277 277 277 276 276 275 275 275 275 274 274 273 273 273 273 274 274
301 301 300 301 301 301 303 303 302 302 302 303 303 302 302 303 304 306 305 304 304 304 304 304 303 303 302 301 300 300 300 299 299 299 298 299 299 298 296 295 294 293 293 292 291 290 289 289 288 288 287 287 287 287 286 285 285 286 285 285 285 285 285 286 285 284 284 283 282 282 281 280 280 280 279 279 278 278 277 277 277 277 276 276 276 275 275 275 274 274 273 273 273 273 273 273 274
302 300 300 301 301 302 303 302 302 302 302 303 304 304 303 303 304 305 305 304 303 303 304 304 304 304 303 302 302 301 300 300 299 299 299 299 299 299 298 296 295 294 293 293 291 291 290 289 288 288 288 287 287 287 286 286 286 286 285 285 285 286 286 286 286 285 284 283 282 281 281 280 279 279 279 279 278 278 277 277 276 276 276 276 275 275 275 275 274 274 273 273 273 273 273 273 273
302 300 301 302 301 303 303 302 302 303 303 304 305 304 302 301 302 304 304 303 302 302 302 302 304 304 304 304 303 302 302 301 300 299 300 300 299 299 298 297 296 295 294 293 292 291 290 289 289 288 288 288 287 287 287 286 286 285 286 286 286 286 286 286 286 286 285 284 283 282 281 280 279 279 279 278 278 278 278 277 276 276 276 276 275 275 275 274 274 273 273 273 272 272 272 272 272
301 301 302 302 302 302 302 301 302 303 305 305 302 302 301 299 301 303 304 302 301 302 301 301 302 303 303 304 304 304 303 302 301 300 300 300 299 299 298 297 297 296 295 293 292 291 290 290 289 288 288 288 287 287 287 287 286 285 286 286 286 286 286 286 286 286 285 284 283 282 281 280 279 279 278 278 277 277 277 277 276 276 276 275 275 275 274 274 274 273 273 272 272 272 272 272 272
300 301 301 301 301 301 301 302 302 304 306 302 299 300 300 299 301 303 304 303 302 303 302 302 302 302 303 303 304 304 303 303 302 301 301 300 300 299 298 297 297 296 295 294 293 292 291 290 289 289 289 288 288 288 287 287 286 286 286 286 286 286 285 286 286 286 286 284 284 283 282 281 280 279 278 278 277 277 277 276 276 275 275 275 275 275 274 274 273 273 273 272 272 272 272 272 272
301 301 300 300 301 301 301 302 303 304 303 299 298 299 299 299 301 302 303 303 303 303 303 303 302 302 302 303 303 304 304 303 302 301 301 301 300 300 299 298 297 296 295 294 293 292 291 290 290 289 289 289 288 288 287 287 286 286 286 286 286 286 285 285 285 286 286 285 284 283 282 281 280 279 279 278 278 277 277 276 276 275 275 275 275 275 274 274 273 273 273 272 272 272 271 271 271
300 300 299 299 300 300 300 301 302 302 301 298 297 297 298 299 301 302 302 303 303 302 302 302 301 302 302 302 302 303 303 302 301 301 301 300 301 301 299 298 297 296 295 295 294 293 292 291 290 290 289 289 289 288 288 287 287 287 286 286 286 286 285 285 285 285 286 285 285 284 283 282 281 280 279 279 278 278 277 277 276 276 276 275 275 274 274 274 273 273 273 272 272 272 271 271 271
300 299 297 298 299 299 299 301 302 302 301 298 296 296 299 301 302 303 302 302 302 302 301 301 301 301 301 301 301 302 302 301 301 301 300 300 300 301 300 299 298 297 296 295 294 293 292 292 291 291 290 290 289 289 288 288 287 287 286 286 286 286 286 285 285 285 285 286 285 284 283 283 282 281 280 279 279 278 277 277 276 276 276 275 275 274 274 273 273 273 272 272 272 272 271 271 271
298 297 296 298 298 298 299 299 299 299 299 298 298 298 301 302 302 303 302 302 301 300 300 300 300 301 301 301 301 302 302 302 301 301 300 300 300 300 300 299 298 297 296 295 295 294 293 293 292 291 291 290 290 289 289 288 288 287 287 286 286 285 285 285 285 285 285 285 285 285 284 283 283 282 281 280 279 279 278 277 276 276 275 275 274 274 273 273 273 272 272 272 272 271 271 271 271
297 296 297 297 297 297 298 298 297 297 298 300 301 301 301 301 302 303 301 300 300 299 299 299 300 300 301 301 302 302 302 303 302 301 301 300 300 300 299 299 298 298 297 296 295 295 294 293 293 292 291 291 290 290 289 289 288 288 287 287 286 286 285 285 285 285 285 285 285 285 284 284 283 282 281 280 279 279 278 277 276 276 275 274 274 273 273 273 272 272 272 272 272 271 271 271 271
296 297 298 297 297 297 298 298 299 299 300 302 301 302 302 301 302 302 300 300 300 299 299 299 299 300 300 301 301 300 301 302 302 301 301 301 301 300 299 299 298 298 297 297 296 295 294 294 293 293 292 291 291 290 290 289 289 288 288 287 287 286 286 285 285 285 285 285 285 285 284 284 283 283 282 280 279 278 278 277 276 275 275 274 274 273 273 272 272 272 272 272 271 271 271 271 270
296 296 296 297 298 299 298 298 299 300 300 301 301 302 302 302 303 302 301 301 301 300 300 299 299 299 299 299 300 300 299 300 301 300 300 301 301 300 300 299 298 298 297 297 296 296 295 294 293 293 292 292 291 291 290 290 289 288 288 287 287 286 286 285 285 285 285 285 284 284 284 284 283 282 281 280 279 278 277 276 276 275 274 274 273 273 273 272 272 272 272 272 271 271 271 271 270
295 295 296 296 297 298 299 298 298 299 299 300 301 302 302 303 303 303 302 302 301 300 300 300 299 299 300 299 299 299 299 299 299 299 299 299 299 299 299 299 298 298 297 297 296 296 295 295 294 293 293 292 292 291 290 290 289 289 288 288 287 287 286 286 285 285 285 285 284 284 284 283 283 282 281 279 279 278 277 276 275 275 274 273 273 273 272 272 272 272 272 272 271 271 271 271 270
296 297 297 297 296 296 297 297 298 298 299 299 300 301 302 302 303 303 302 302 301 301 300 300 299 299 299 299 299 299 299 299 299 298 298 298 298 298 297 297 297 297 297 296 296 296 295 295 294 294 293 292 292 291 291 290 290 289 288 288 287 287 286 286 285 285 284 284 284 284 283 283 282 281 280 279 278 278 277 276 275 275 274 273 273 272 272 272 272 272 272 271 271 271 271 270 270
298 299 299 299 298 297 297 298 298 297 298 299 299 300 301 302 302 302 301 301 301 300 300 299 299 299 299 299 299 299 298 298 298 298 298 298 298 297 297 296 296 296 296 296 295 295 295 294 294 294 293 293 292 292 291 291 290 289 289 288 288 287 287 286 285 285 284 284 284 283 283 282 281 280 280 279 278 277 277 276 275 275 274 273 273 273 272 272 272 272 272 271 271 271 271 270 270
Wind_Speed
5 4 3 4 5 8 7 3 3 3 4 5 5 2 1 1 2 5 7 7 5 5 6 8 8 5 4 7 11 10 9 6 2 1 2 7 13 15 15 16 15 16 17 16 17 17 17 18 20 21 21 22 22 22 22 21 21 21 21 20 20 20 19 19 20 20 20 20 19 19 19 19 19 19 20 20 19 19 19 19 20 20 21 21 22 23 24 25 24 23 23 22 22 22 22 23 23
4 3 2 3 5 6 3 2 4 3 5 6 3 1 2 2 3 5 6 7 6 6 7 10 11 10 11 12 10 8 9 9 6 4 7 15 17 15 16 15 15 17 17 17 17 16 18 20 21 22 22 23 23 21 21 21 22 22 21 20 18 17 17 18 18 19 19 18 18 18 18 19 19 19 19 20 19 19 20 20 20 20 20 21 22 24 25 25 23 22 22 22 22 22 22 22 22
4 4 3 2 3 3 2 3 5 3 5 5 1 3 2 3 6 9 10 12 11 9 7 8 8 6 6 8 4 4 4 5 9 7 9 15 14 13 17 16 16 17 17 17 16 17 18 19 21 21 21 22 22 20 20 21 21 20 18 18 17 16 16 17 17 18 18 17 18 18 18 18 19 20 19 19 19 19 19 20 21 21 20 21 22 23 23 23 22 21 21 21 21 21 22 22 22
3 3 4 5 2 3 2 3 5 5 5 4 0 3 2 5 10 12 12 12 9 6 4 5 5 4 2 8 6 7 7 4 8 7 7 10 13 16 18 17 16 16 16 16 15 17 19 20 21 20 20 21 20 19 19 18 17 16 16 16 15 15 16 16 17 18 18 17 17 17 18 18 18 19 19 19 19 18 19 19 20 20 19 22 22 20 21 21 21 20 20 20 21 21 21 21 21
1 1 4 4 0 2 1 3 5 5 4 3 1 3 5 7 11 12 10 7 4 3 3 3 3 3 5 7 3 4 5 3 8 8 6 11 15 16 17 16 16 16 16 16 16 18 19 20 20 19 20 19 18 18 18 17 16 16 16 15 15 14 15 15 16 17 18 18 17 17 17 17 18 18 18 19 18 18 18 19 19 19 20 21 21 20 20 20 20 20 20 20 20 20 21 21 21
3 4 5 3 1 1 1 4 5 4 1 3 1 4 6 8 10 11 9 6 6 5 3 2 4 6 4 5 4 4 2 1 6 6 6 13 15 15 17 17 16 17 17 16 17 17 18 19 20 19 18 17 17 18 18 18 17 16 15 15 15 15 16 16 16 17 17 18 18 17 17 17 17 17 17 18 17 17 18 18 18 18 19 19 19 19 20 20 20 20 20 20 20 20 21 21 20
4 3 2 2 1 1 3 4 5 2 4 5 3 5 6 7 9 10 8 5 5 5 4 4 8 8 5 4 5 6 6 3 4 5 10 17 17 16 18 17 17 17 17 17 17 17 18 19 19 18 17 17 17 18 19 19 17 16 15 14 15 15 16 17 17 17 17 17 17 16 15 15 16 16 16 16 17 17 17 17 17 17 17 18 18 19 19 19 20 20 20 20 20 20 20 20 20
5 1 1 0 1 1 3 4 3 2 4 6 5 5 5 5 7 8 7 3 2 3 2 4 5 5 5 4 3 4 7 7 7 9 16 20 18 17 18 17 18 17 17 18 18 19 18 17 17 17 17 18 18 19 20 18 16 16 15 15 15 15 16 17 17 17 16 16 15 14 15 15 14 15 15 16 16 16 16 16 16 17 17 17 18 18 18 19 19 19 19 19 19 19 19 19 20
4 1 0 1 1 1 3 3 2 1 2 3 3 4 4 1 2 4 5 4 3 3 2 2 2 2 7 4 3 3 4 6 10 15 18 19 17 17 18 17 18 19 18 18 18 18 18 17 17 18 17 18 19 20 19 17 16 16 15 14 14 15 16 15 15 15 15 14 14 14 14 14 14 14 14 15 15 16 16 16 16 16 16 16 17 17 18 18 18 18 18 19 19 19 19 19 19
2 2 2 2 2 3 4 3 2 0 1 0 2 1 2 3 1 4 6 6 5 4 3 1 3 4 9 6 5 3 2 8 14 18 19 19 18 16 18 17 18 20 19 18 18 18 18 18 17 17 17 19 20 19 18 16 15 15 14 14 13 14 14 13 13 14 13 13 13 13 13 14 14 14 14 14 14 15 15 15 15 15 16 16 16 16 17 17 18 18 18 18 18 18 18 18 19
3 2 1 3 4 4 4 3 2 1 2 3 1 2 2 2 3 5 6 6 5 4 4 3 3 9 10 6 3 2 5 9 13 17 19 19 17 15 17 16 17 20 20 19 19 19 19 18 18 18 18 19 18 18 17 15 14 14 12 13 13 13 13 13 13 13 13 13 13 13 13 13 13 14 14 14 14 14 15 15 15 15 15 15 16 16 16 16 17 17 16 17 17 18 18 18 19
3 2 3 5 5 5 3 3 3 2 3 4 4 3 2 4 5 6 7 7 7 6 6 5 6 10 8 6 2 4 7 8 12 17 20 17 14 14 16 16 16 18 20 21 19 19 19 19 19 19 19 18 17 18 18 16 15 14 12 12 13 13 12 11 11 12 12 11 12 12 13 14 14 14 14 14 14 14 14 15 14 14 15 15 15 15 15 15 16 15 15 16 16 16 17 18 19
3 3 4 4 3 3 3 3 4 4 3 5 5 5 6 7 7 8 8 8 8 9 7 3 8 9 5 6 2 5 8 10 15 18 19 15 13 16 18 18 16 17 20 21 19 19 18 17 17 18 18 17 17 18 18 16 15 14 13 12 13 12 10 8 7 8 8 8 8 9 10 11 12 13 13 13 14 14 14 14 14 14 14 14 14 14 14 14 14 14 14 15 15 15 16 16 17
3 3 4 4 1 3 5 4 4 5 3 5 7 7 7 5 6 9 9 10 9 7 4 1 7 8 3 5 2 6 10 13 18 18 19 17 16 18 19 20 17 17 19 19 19 18 17 16 16 16 16 16 17 18 17 16 15 14 12 12 11 9 7 6 6 5 6 6 7 6 6 6 7 8 8 9 10 11 12 12 12 12 11 11 11 12 12 12 12 13 13 14 14 15 15 16 16
3 2 4 5 4 4 5 5 4 6 3 8 8 8 7 1 2 7 6 8 6 3 3 1 3 2 4 8 5 10 13 16 20 19 20 19 18 20 23 23 20 19 18 18 18 16 16 16 15 15 15 15 15 16 15 14 12 11 10 10 9 7 6 5 5 5 5 6 6 6 5 5 6 6 7 7 8 9 9 10 9 9 8 9 9 10 11 12 13 13 14 14 14 15 14 14 15
2 3 3 5 6 5 5 5 5 4 2 8 9 9 8 3 1 3 1 1 5 4 3 2 1 3 3 7 6 16 18 18 21 19 19 19 17 19 22 22 22 21 18 16 16 15 15 15 15 14 14 15 15 14 12 10 9 8 8 8 7 6 6 5 5 5 6 6 5 5 6 6 6 7 7 7 7 7 8 8 8 7 8 9 9 10 11 12 13 14 15 15 15 15 15 15 15
2 4 4 4 6 5 2 2 2 0 4 8 9 10 8 7 3 1 2 1 7 8 3 2 1 3 3 3 12 22 21 18 20 17 17 17 15 14 15 17 19 19 15 14 13 13 14 14 14 14 15 15 15 13 11 9 9 9 8 8 7 6 5 5 5 5 6 5 6 6 7 7 6 6 6 6 6 7 7 7 7 8 8 9 10 10 11 12 13 13 14 14 15 15 15 16 17
4 4 5 6 6 3 3 4 3 2 4 9 10 10 8 8 6 4 5 4 6 8 4 3 2 1 2 9 17 22 21 19 19 17 16 15 14 13 13 14 15 15 13 12 11 12 12 13 13 14 15 14 14 12 11 11 11 11 10 8 7 6 5 5 5 5 6 6 6 6 6 6 5 5 5 6 6 7 7 8 8 8 9 9 10 10 11 12 12 13 13 14 14 15 15 16 17
6 4 6 5 2 2 4 5 4 4 2 10 10 9 7 8 9 7 7 7 9 8 6 6 6 3 5 11 15 19 20 19 19 19 18 17 16 15 15 14 14 14 12 12 12 11 12 12 13 14 14 14 13 12 12 12 12 11 10 8 7 6 5 5 5 5 6 6 6 6 5 4 4 5 5 6 7 8 8 9 9 10 10 10 11 11 12 12 12 13 13 14 14 15 15 16 17
5 5 6 1 4 4 5 5 4 4 1 8 9 6 6 7 8 8 7 8 11 11 9 9 10 9 9 12 16 18 19 18 18 19 18 18 17 16 16 16 15 15 13 12 12 11 12 13 13 14 15 14 14 14 13 13 12 11 10 9 7 6 6 5 6 6 6 5 5 5 4 3 4 5 6 7 7 8 9 10 11 11 11 11 11 11 12 12 12 13 13 14 14 15 15 16 16
2 3 4 4 4 2 6 6 4 3 2 5 7 6 6 6 5 6 7 9 10 10 10 9 11 13 13 14 17 18 18 18 18 18 17 17 16 15 14 14 14 14 13 12 12 12 12 13 14 14 15 14 14 14 13 13 13 11 10 9 8 7 7 6 6 6 5 5 4 3 2 3 4 4 6 6 7 7 8 9 9 10 10 10 10 10 11 11 12 13 13 14 14 15 15 15 16
1 1 2 4 4 2 5 5 4 3 2 4 7 6 6 6 4 6 9 8 4 2 4 4 7 13 15 16 17 17 18 18 17 17 18 16 15 14 13 13 12 12 13 13 12 13 13 13 14 15 15 14 14 13 12 14 13 10 10 10 9 8 8 8 7 6 5 4 3 2 2 3 4 4 5 5 5 6 6 6 7 7 8 9 9 10 10 11 12 12 13 14 14 15 15 16 16
4 1 3 4 4 3 4 4 3 3 2 5 5 4 5 6 6 6 9 5 3 3 4 3 6 13 16 17 17 16 17 18 18 18 18 17 16 14 14 14 12 13 13 13 13 13 14 14 15 16 15 14 14 13 13 14 12 10 11 11 9 9 9 9 8 7 5 3 2 2 2 2 2 3 5 5 4 4 4 4 5 6 7 8 8 9 10 10 11 11 13 13 13 14 14 15 15
6 1 4 4 5 4 4 4 2 2 1 2 2 3 4 7 4 2 7 3 5 2 3 4 6 11 15 15 15 15 16 17 17 16 16 16 16 14 13 12 12 13 13 13 13 14 15 15 16 17 15 16 15 14 13 12 11 12 13 12 11 11 10 9 8 7 4 3 1 0 1 1 1 2 3 4 4 3 4 4 4 5 6 7 7 8 9 9 9 10 12 11 11 11 11 13 13
4 1 5 3 4 5 4 4 3 3 2 2 2 3 2 2 2 3 8 5 6 5 4 5 6 9 12 13 14 14 14 15 15 14 13 12 14 13 12 11 11 13 13 14 13 14 16 16 17 16 15 16 15 14 13 11 12 13 13 12 12 12 10 9 8 6 4 3 2 2 1 0 1 2 2 2 3 3 4 4 4 4 5 6 7 7 8 8 7 8 11 8 9 9 7 10 11
2 4 5 5 5 5 4 4 4 3 2 1 3 3 0 1 4 6 8 8 8 7 7 8 9 10 11 11 13 14 13 14 15 13 11 9 10 11 12 12 11 13 13 13 13 13 15 17 16 15 15 15 14 14 13 12 13 13 13 13 13 12 11 10 8 6 5 4 3 3 2 1 2 2 2 2 2 2 3 3 3 4 5 6 6 7 7 8 7 7 10 8 7 8 6 8 9
6 8 7 6 5 4 3 3 4 2 3 0 4 3 1 1 2 6 6 10 9 9 9 9 10 11 11 10 11 13 13 14 15 12 12 11 10 12 13 12 12 13 13 13 14 13 15 17 16 15 15 15 15 14 13 13 13 13 14 14 13 13 12 10 8 7 6 5 5 4 3 3 2 3 3 2 1 1 1 1 2 2 3 5 5 6 6 7 7 8 11 10 8 7 6 7 8
9 9 8 6 5 5 3 3 3 2 2 0 4 4 4 3 5 7 6 10 10 10 10 10 10 11 11 10 10 11 12 13 13 13 15 15 12 13 14 14 14 13 13 14 14 13 16 17 16 15 15 16 16 14 13 13 12 14 15 14 14 14 13 10 9 8 7 7 6 5 5 4 3 3 3 3 2 2 1 1 0 1 1 2 4 6 7 7 6 7 9 10 8 6 5 6 7
7 5 3 5 5 4 5 3 3 2 1 1 3 6 8 11 11 7 9 10 10 10 10 11 11 10 10 11 9 10 12 13 13 14 16 16 14 15 15 15 15 14 13 14 13 14 16 16 16 15 15 17 16 14 14 14 14 16 16 15 16 15 13 12 10 9 9 8 7 6 5 4 4 4 4 3 3 3 2 1 1 0 1 2 4 6 7 5 4 5 6 6 6 5 5 6 7
4 4 2 4 5 4 6 4 3 3 2 2 3 6 7 10 12 7 10 10 10 11 10 11 11 10 11 11 10 10 13 15 15 16 16 16 16 16 16 15 15 14 13 13 14 15 16 16 16 16 16 17 17 15 14 14 15 17 16 16 17 16 14 13 12 11 10 9 8 7 6 6 6 5 5 3 3 3 2 2 2 1 2 3 3 4 4 2 2 4 4 4 4 4 4 5 6
3 2 2 4 5 2 7 5 5 4 4 3 4 5 7 4 11 9 9 10 11 11 11 12 11 11 11 11 11 11 13 17 18 18 18 18 17 15 16 16 16 15 14 14 16 16 16 18 18 18 19 18 17 17 15 14 16 17 17 17 18 16 14 14 13 12 11 10 9 8 7 7 7 6 5 4 4 4 4 3 2 3 2 2 1 2 2 0 2 3 3 4 4 4 4 5 6
3 3 3 4 4 2 6 5 4 3 3 5 5 5 7 3 10 9 8 10 11 11 11 12 12 13 12 11 12 11 13 17 19 19 20 20 18 17 16 17 17 17 16 15 16 17 17 19 22 21 21 20 19 18 16 14 15 17 17 18 19 18 15 14 14 13 12 11 11 10 9 8 8 7 6 5 5 5 5 4 4 4 3 1 2 2 1 1 2 2 2 3 4 4 4 5 6
4 5 5 2 4 2 4 4 4 2 2 7 8 6 8 2 8 9 9 10 12 11 12 13 13 14 13 12 12 12 13 15 18 21 22 22 20 18 18 18 18 18 17 16 16 18 18 19 23 23 21 20 19 19 18 17 17 17 17 19 19 19 17 15 15 15 14 13 13 12 11 9 9 7 6 5 6 6 5 5 5 5 3 1 2 1 1 2 2 2 2 2 3 4 4 5 6
4 4 5 4 4 5 3 3 4 3 3 7 10 9 12 10 6 10 12 12 13 12 13 14 13 13 13 12 12 13 14 14 17 22 24 23 21 20 19 18 19 18 18 18 17 19 19 18 22 23 20 20 19 19 19 19 18 17 17 18 20 20 18 17 17 16 16 15 14 14 12 10 9 8 7 6 6 7 6 6 6 5 2 2 2 2 2 3 2 2 2 3 4 4 5 5 6
3 1 4 4 4 7 6 1 3 3 5 7 10 11 16 17 11 10 14 14 14 14 13 13 13 14 13 13 13 14 14 16 18 21 23 24 22 21 20 19 19 19 19 19 19 19 19 18 20 22 22 21 20 19 20 20 18 17 16 17 19 19 17 18 19 18 16 15 15 15 13 11 11 9 8 7 7 7 7 6 7 5 3 3 3 3 3 3 2 3 4 3 4 4 5 5 6
6 5 6 6 6 6 2 3 4 1 4 8 12 13 16 17 15 11 12 15 14 14 13 12 13 13 13 13 13 14 15 16 18 20 22 23 23 22 21 20 20 20 20 20 21 20 21 20 19 22 23 22 21 19 20 20 18 17 17 16 18 19 18 19 21 19 16 16 17 17 14 13 12 11 10 9 9 9 8 7 7 6 4 5 5 4 4 4 4 4 4 4 5 4 5 5 5
5 5 6 7 8 5 2 4 4 1 4 8 10 13 17 17 16 15 10 13 14 15 15 14 13 13 13 14 14 15 16 15 16 19 21 22 23 22 22 21 21 21 22 22 23 23 23 23 21 23 24 25 24 21 22 22 21 21 19 19 19 19 19 20 21 20 18 18 19 18 16 15 15 13 13 12 11 10 9 9 9 7 5 6 6 6 6 6 6 4 3 4 5 5 5 4 4
4 5 6 6 6 4 2 4 2 2 3 7 10 13 18 17 16 17 13 13 15 15 16 16 16 15 13 14 16 15 14 12 13 18 21 22 23 23 23 22 22 24 24 24 25 25 25 26 25 24 25 27 27 25 24 24 25 24 23 21 20 19 19 20 20 20 20 21 21 20 18 18 18 16 15 14 13 12 11 10 10 8 7 7 7 7 7 7 6 4 3 4 5 5 6 5 4
4 4 5 5 3 3 1 4 2 2 2 7 10 12 16 18 18 18 15 15 14 14 15 15 16 16 14 14 15 15 14 13 14 17 20 23 24 24 23 23 24 26 25 26 26 27 27 29 29 26 26 27 28 27 26 25 25 25 23 21 19 18 18 19 19 19 21 23 23 22 21 21 20 19 18 17 16 14 13 12 12 11 10 10 9 8 8 7 6 5 4 4 4 5 6 6 5
4 3 5 4 4 4 2 2 1 4 5 8 10 11 15 16 15 15 14 14 13 12 13 14 14 15 15 15 14 15 16 15 16 16 18 22 23 24 25 24 25 25 25 26 28 29 30 30 31 29 28 28 28 28 28 25 23 23 22 19 17 17 16 16 16 16 19 23 24 24 24 24 23 22 21 20 18 17 16 14 14 13 12 11 10 9 9 9 8 7 6 5 4 5 5 5 5
3 1 5 5 4 5 5 3 5 7 6 5 8 9 9 5 5 7 4 5 9 9 9 12 13 14 14 14 14 14 15 15 16 16 17 20 23 25 26 26 24 25 27 29 30 31 31 31 32 31 30 29 27 28 29 26 23 21 20 18 18 16 14 15 17 17 19 22 25 26 27 27 26 24 23 22 21 19 18 17 15 14 13 12 11 10 10 10 9 9 8 7 6 6 6 6 6
2 2 3 4 5 6 8 8 8 7 3 3 4 7 4 1 4 4 3 3 5 7 9 12 12 12 12 12 14 14 14 14 14 16 16 19 23 25 26 26 26 27 30 31 31 31 30 31 31 31 31 30 29 28 29 28 26 24 23 22 22 20 18 20 21 21 22 25 28 28 28 29 28 27 25 24 23 21 20 19 17 16 15 14 12 11 10 10 11 10 9 8 7 7 6 6 7
2 1 3 3 4 6 8 7 6 6 4 1 1 5 6 7 9 3 4 3 6 7 10 11 10 10 11 11 12 12 13 14 13 15 16 18 22 24 25 27 28 30 31 29 28 29 31 31 32 33 34 33 31 29 30 31 30 27 26 26 26 25 23 23 23 23 24 27 29 28 28 29 30 29 27 26 24 23 22 21 20 18 16 15 14 13 12 11 11 11 11 9 8 8 7 7 8
2 1 2 3 4 7 7 6 6 5 7 2 4 4 6 7 6 2 3 5 7 7 9 9 8 9 11 11 11 12 13 13 12 13 15 18 21 23 25 27 29 30 28 26 27 30 32 32 32 34 36 35 34 32 33 35 34 31 29 28 27 27 27 24 22 23 23 24 26 28 27 29 31 31 29 28 27 26 24 22 21 19 18 16 15 14 13 13 12 12 12 11 10 9 9 9 8
1 1 3 4 4 7 6 5 6 4 6 4 4 3 5 6 5 3 4 4 4 3 4 5 6 7 9 10 11 12 12 12 12 13 14 17 21 25 26 26 27 27 26 26 29 30 30 31 32 33 35 37 37 37 37 39 39 35 31 29 29 28 27 25 22 22 23 23 24 26 26 27 30 31 31 29 28 28 27 24 22 21 20 18 17 15 14 14 14 13 14 13 12 11 10 10 10
2 1 4 4 5 6 5 5 5 3 5 4 3 2 4 7 7 2 4 3 3 5 6 3 3 4 6 8 9 10 10 10 11 13 14 17 21 24 25 25 25 25 26 27 28 28 29 31 32 34 38 39 38 38 40 42 43 38 34 33 32 29 27 25 24 23 23 24 24 25 26 26 27 30 31 30 30 30 29 26 24 23 21 19 18 17 16 16 16 15 15 14 13 12 11 11 11
2 3 5 5 6 5 4 4 3 3 4 1 4 1 2 6 8 2 2 0 2 5 6 5 5 4 4 5 6 7 7 7 9 10 13 16 19 20 21 23 25 24 24 25 26 28 29 31 34 37 41 40 37 38 42 45 44 40 38 37 34 32 29 27 27 27 25 25 26 26 26 26 26 29 31 30 30 31 29 28 26 25 23 21 20 19 18 17 17 16 16 15 15 14 13 12 12
3 4 5 6 5 4 4 4 3 4 3 3 4 1 3 5 6 3 3 3 2 3 6 7 7 6 5 4 4 5 5 6 7 8 9 12 14 16 19 21 23 23 23 24 26 27 28 29 32 35 39 40 38 38 42 46 44 42 42 40 37 36 33 30 30 30 29 27 27 27 26 26 26 27 29 30 31 32 30 29 27 26 24 23 22 21 19 18 17 17 16 16 16 16 15 14 13
4 5 4 5 4 2 3 3 3 5 1 4 3 1 4 9 10 11 13 11 6 3 4 6 8 8 7 5 4 4 4 5 6 7 7 8 9 12 16 19 20 21 24 25 25 25 26 28 30 32 36 40 39 38 41 44 44 45 46 43 40 38 35 34 33 32 31 30 28 28 28 28 27 28 29 31 33 35 34 32 30 28 26 25 24 22 21 19 19 18 17 17 17 16 16 16 15
4 3 3 4 4 4 5 5 5 5 1 4 4 1 6 10 9 11 14 12 5 3 5 6 7 9 8 6 5 5 5 6 6 6 7 7 8 11 14 17 18 20 23 25 25 25 25 27 29 32 36 38 36 37 39 42 44 48 48 45 41 38 36 36 35 34 33 31 30 30 31 30 30 30 32 33 34 36 36 35 33 30 28 27 25 24 22 21 20 18 18 18 17 17 17 16 16
2 1 3 4 3 4 5 5 5 7 6 2 3 1 6 6 4 5 8 7 4 4 5 5 6 7 7 6 6 6 6 6 6 6 7 8 9 11 12 14 16 18 21 23 24 25 25 27 29 32 35 35 34 35 36 38 41 43 43 42 40 39 38 37 36 35 34 33 32 31 32 32 31 31 32 34 35 36 37 36 34 33 31 28 26 25 24 22 21 20 18 18 18 17 17 17 17
1 1 3 3 2 3 4 4 4 5 7 5 3 4 6 7 10 11 9 7 6 4 3 4 5 5 5 5 5 5 5 5 5 6 7 8 10 11 12 13 15 16 18 21 23 24 26 27 28 30 33 34 33 34 36 37 38 38 37 39 39 38 38 36 36 36 36 36 35 32 32 32 31 30 30 32 34 37 39 37 35 34 31 29 27 27 25 24 22 21 19 19 19 18 18 18 17
2 2 2 1 2 4 4 3 1 2 5 5 4 7 7 7 11 8 3 3 4 4 4 5 5 5 5 5 6 6 5 4 4 5 6 7 8 10 11 13 14 15 17 19 22 24 26 27 27 29 31 32 32 34 36 36 36 35 36 38 38 38 39 38 37 37 36 36 34 32 31 30 31 30 29 31 33 36 39 38 36 33 31 30 29 27 27 25 23 22 21 20 20 19 18 18 18
2 2 1 1 1 1 3 4 2 3 7 6 6 11 10 6 5 2 5 6 7 7 6 7 6 6 6 7 7 6 6 4 3 5 6 6 7 9 11 12 14 16 17 19 21 23 24 26 27 28 29 31 32 33 35 34 34 35 36 37 38 39 39 39 38 36 34 33 32 32 31 30 30 30 28 30 33 35 37 36 35 32 30 30 29 27 27 25 23 22 21 21 20 19 19 18 18
3 3 2 2 2 2 2 3 4 5 6 7 6 9 10 7 6 5 5 7 7 7 7 7 7 7 6 6 7 7 7 5 4 5 6 6 7 9 10 12 14 16 17 18 19 20 22 24 26 27 29 30 31 31 32 33 33 34 35 36 37 38 38 37 37 35 33 32 32 32 32 30 29 28 28 31 34 35 35 34 33 31 30 29 28 27 26 25 23 22 21 21 20 20 20 19 18
1 3 2 1 2 3 3 1 3 4 6 8 7 7 8 7 7 8 8 5 5 4 5 7 7 6 6 6 7 7 7 6 6 7 7 8 9 11 12 12 13 14 15 17 17 18 21 23 24 26 27 28 28 29 30 31 32 33 33 33 34 35 36 36 35 34 32 33 33 31 31 30 28 28 29 31 34 35 34 33 32 30 29 29 28 27 26 25 23 22 21 21 20 21 21 20 19
5 4 5 4 2 1 3 3 2 4 6 7 6 7 9 8 4 7 9 6 6 7 6 7 6 6 7 7 7 7 7 8 8 8 9 9 10 13 14 14 13 13 14 15 16 17 19 21 22 24 25 26 27 28 29 30 30 31 31 32 32 32 33 34 33 33 33 33 32 31 30 29 28 30 31 31 33 34 35 35 33 32 31 30 28 27 25 25 24 23 22 21 20 21 21 20 19
4 5 6 7 5 3 4 5 2 2 4 5 5 7 11 9 3 6 9 7 7 6 6 7 7 7 8 7 8 9 8 9 9 9 9 8 9 12 13 13 13 13 14 15 16 16 17 19 21 22 23 25 26 27 28 28 28 28 30 31 31 30 30 30 31 31 32 32 32 31 30 29 29 30 31 33 34 35 36 36 36 35 33 31 30 28 26 25 24 23 23 21 21 21 21 21 20
Wind_Direction
11 338 318 266 259 257 241 233 267 235 238 253 255 227 154 70 130 129 123 134 109 57 45 61 60 52 72 97 107 87 45 23 28 166 118 119 136 133 123 120 120 115 108 105 105 103 100 100 98 97 96 91 91 90 87 83 80 81 80 78 74 69 68 68 69 71 71 70 70 69 68 67 67 66 63 62 63 61 59 60 61 59 56 54 57 57 56 57 53 50 52 51 49 47 44 42 40
19 6 5 292 273 258 264 268 260 244 247 257 236 131 121 156 116 96 108 105 93 96 81 74 73 71 90 106 114 86 44 36 62 66 97 122 123 119 120 121 120 113 109 108 105 103 100 99 98 96 94 90 91 92 87 84 81 79 78 77 76 72 71 71 71 73 74 73 72 71 69 68 68 68 64 63 64 62 59 60 62 61 55 53 54 53 52 54 52 49 50 51 49 47 44 42 41
359 7 31 358 291 250 297 275 252 255 250 253 203 97 126 139 82 76 84 90 103 115 98 87 72 55 103 111 81 59 59 57 80 91 109 119 116 118 123 122 118 113 112 111 108 106 103 101 98 94 92 90 89 92 89 85 81 77 76 75 77 76 75 74 73 76 78 75 73 71 69 67 67 67 65 63 62 61 59 58 59 60 55 51 52 50 50 52 52 51 50 50 49 47 45 43 41
317 320 35 50 21 257 264 246 241 255 258 257 198 84 90 100 89 86 91 99 115 119 102 110 73 13 85 104 92 82 93 83 77 94 110 110 116 125 126 124 121 117 114 112 112 109 106 103 99 95 93 91 89 91 89 84 80 78 78 78 80 80 79 78 76 79 80 77 73 72 69 68 67 66 64 62 62 61 60 58 58 59 55 53 54 52 52 52 51 51 50 49 48 46 46 43 42
59 136 56 63 108 280 272 248 245 244 261 290 297 58 68 96 107 105 99 91 74 64 92 138 108 63 58 73 93 89 92 98 80 79 97 113 117 124 128 127 125 122 119 117 117 112 108 104 100 100 96 92 90 89 89 86 83 85 85 84 84 82 84 83 80 80 80 77 73 72 69 67 67 65 63 61 62 62 60 60 59 59 55 54 56 54 52 52 51 50 49 48 48 46 46 44 41
103 109 67 65 162 322 261 247 250 228 29 344 321 83 85 107 117 115 104 70 37 39 41 37 117 116 76 52 52 54 40 119 99 79 107 125 122 128 131 130 129 126 124 122 122 117 112 109 103 101 98 95 93 90 88 86 86 87 88 89 88 85 88 88 83 82 80 76 71 69 67 66 66 66 65 63 64 63 61 60 58 58 56 55 56 54 52 51 50 49 48 48 47 46 44 44 42
144 137 78 73 152 269 254 254 271 265 37 5 20 72 89 117 125 127 125 103 55 47 38 74 118 114 99 110 96 52 23 53 111 109 135 135 129 137 138 134 132 127 127 124 121 121 117 112 106 101 101 101 98 93 89 88 89 91 92 95 96 91 89 86 82 80 77 74 72 69 69 69 69 68 68 66 64 63 62 61 59 58 56 55 54 52 51 49 49 47 47 46 45 45 43 42 41
136 114 10 268 210 257 258 263 295 347 27 10 25 39 54 113 137 145 137 119 78 70 62 109 123 105 114 159 136 57 36 69 108 122 137 137 133 144 144 137 133 128 129 123 118 122 118 112 110 106 104 104 101 94 91 91 93 94 94 96 97 91 86 84 80 78 76 75 75 72 70 71 72 69 68 66 64 63 63 62 59 58 56 54 53 51 50 48 48 47 45 45 44 44 42 41 38
112 93 324 210 227 248 253 267 290 43 33 10 17 14 7 30 135 150 129 94 103 113 130 123 7 89 134 145 113 97 49 90 127 133 141 140 135 144 146 143 138 132 131 126 122 121 117 116 114 110 108 105 101 95 94 97 97 96 93 93 92 83 82 85 81 78 78 77 75 72 71 72 72 71 68 67 64 62 62 60 58 56 55 53 52 49 47 46 44 44 44 43 43 42 41 40 36
157 198 231 223 229 236 240 257 243 115 103 41 328 305 319 309 68 131 128 110 126 129 154 263 356 130 137 133 118 117 116 132 141 140 145 139 132 144 148 149 145 137 134 131 125 121 118 118 115 113 112 106 102 98 102 105 101 98 92 92 90 83 84 85 84 81 80 79 77 75 74 73 74 73 70 68 64 62 60 59 57 55 54 51 50 48 46 44 41 41 42 40 40 39 38 35 30
211 190 237 243 237 245 246 243 222 132 142 168 229 217 263 250 155 131 126 122 146 145 168 218 141 137 132 131 122 105 137 143 143 142 147 138 126 139 146 148 150 142 136 133 127 126 122 120 119 115 110 108 109 106 109 110 104 103 98 93 91 88 88 86 87 86 84 83 82 81 78 76 75 74 71 69 65 61 60 59 57 54 52 50 49 47 44 43 40 37 36 34 32 30 28 25 21
229 184 215 246 249 254 250 246 218 154 157 193 191 176 175 179 163 147 142 138 158 160 167 199 159 143 140 146 139 137 152 153 150 149 148 139 127 135 139 142 151 149 139 135 133 132 127 122 121 118 117 117 118 114 113 113 107 108 103 97 93 91 94 97 97 93 91 90 89 86 83 80 76 73 71 71 67 62 60 59 58 56 52 50 48 44 42 40 36 31 28 27 25 22 20 17 15
240 209 222 246 265 260 246 247 200 173 201 207 186 165 172 181 180 168 152 147 164 164 164 205 166 157 148 139 135 165 170 166 159 154 148 141 137 136 133 132 141 154 147 138 139 139 132 125 125 128 132 132 129 124 119 116 111 110 107 103 98 98 108 116 111 104 103 102 100 95 89 83 77 74 73 74 70 65 62 59 58 56 52 50 47 44 39 32 26 22 20 18 16 15 14 12 9
237 221 238 248 244 243 246 244 183 204 222 157 156 159 174 188 179 169 156 163 171 157 141 331 174 168 151 142 168 187 177 171 161 155 153 147 143 142 136 130 127 142 148 145 147 145 140 133 130 132 133 134 132 130 126 124 117 111 109 108 108 115 124 122 117 114 113 111 112 107 95 84 76 75 75 73 67 63 63 61 59 53 48 45 41 36 29 20 15 12 10 10 8 8 7 6 5
254 240 248 252 248 235 233 234 208 235 206 132 150 158 160 100 146 171 165 178 166 111 107 34 220 197 161 173 195 186 171 166 162 155 154 149 146 148 145 140 130 131 139 144 147 147 145 139 137 133 129 128 126 131 138 137 126 119 117 117 125 134 130 123 122 119 118 117 115 110 100 91 86 84 81 75 66 61 59 58 55 46 36 30 24 19 14 8 5 2 2 2 1 1 0 0 -0
263 275 253 253 261 247 205 212 227 245 159 132 157 156 151 122 149 184 58 133 127 129 173 151 264 327 202 193 166 165 162 160 161 153 150 147 144 146 146 145 141 138 135 135 138 139 141 141 142 136 131 130 131 142 151 147 135 131 132 133 140 141 134 132 130 126 126 125 120 113 107 103 98 92 85 78 67 59 53 48 43 33 23 16 10 6 3 359 357 356 356 357 356 357 355 356 357
229 253 248 245 249 245 187 197 250 202 126 131 159 167 161 143 149 143 93 126 131 147 175 94 46 316 262 146 132 149 153 155 157 151 148 145 144 144 143 145 145 143 138 132 135 138 140 142 142 137 136 138 147 157 159 148 139 141 147 151 152 146 140 136 134 136 132 128 124 117 112 108 99 91 80 66 54 44 39 32 26 17 9 4 1 359 356 354 354 352 354 355 356 358 0 3 3
213 227 234 241 244 247 25 26 17 9 150 149 166 180 179 157 153 143 145 160 142 153 166 125 117 344 53 101 126 142 146 153 157 157 154 152 154 152 149 151 151 148 143 138 140 146 146 144 144 143 143 149 161 166 162 154 151 158 164 164 160 152 147 144 143 141 136 131 127 118 109 104 89 75 59 47 35 27 22 15 10 5 1 358 355 354 355 355 356 357 358 1 3 5 9 11 9
224 239 237 249 311 68 38 20 27 355 131 148 166 183 188 166 156 163 177 170 160 170 173 165 158 134 110 125 142 145 147 157 162 166 163 162 165 161 159 161 162 159 154 149 149 153 150 149 150 149 150 156 165 166 164 162 163 169 172 169 165 160 159 157 156 150 146 141 131 118 105 92 69 49 36 25 12 7 2 358 355 352 353 354 353 354 358 0 2 6 7 8 11 12 14 15 13
226 248 246 296 34 72 55 20 25 358 36 153 164 173 179 157 150 175 193 177 180 191 182 181 181 167 152 155 160 153 155 163 169 172 170 171 172 168 166 168 170 166 162 158 156 158 156 155 152 153 155 157 163 167 164 162 164 168 169 170 165 167 170 168 168 162 157 151 137 120 100 72 47 29 15 6 2 359 351 347 348 349 351 353 358 4 5 8 9 11 12 12 13 15 16 15 15
218 243 274 24 5 23 52 22 21 354 286 173 155 160 169 145 152 190 190 179 193 208 187 188 192 171 161 162 163 162 165 170 174 178 177 178 178 175 173 172 171 164 161 161 161 163 162 160 156 158 159 160 168 168 164 165 168 168 171 173 172 178 181 177 174 170 165 155 137 115 79 48 35 16 5 1 357 352 349 349 349 352 355 358 6 12 11 12 14 12 12 15 14 13 15 13 13
257 157 3 25 336 346 47 26 24 359 276 173 163 172 154 137 179 207 208 200 196 229 158 173 186 166 164 166 166 167 171 176 180 183 183 184 184 182 178 173 167 160 161 164 166 166 166 164 162 163 163 165 170 167 171 178 175 168 173 177 177 184 185 182 179 176 174 162 139 100 52 29 21 3 354 354 352 348 351 354 352 358 3 7 12 13 13 14 16 14 13 15 13 12 13 12 10
251 139 68 29 -0 21 43 41 29 337 211 178 170 151 128 162 199 209 229 227 84 35 60 88 158 162 165 166 169 173 177 183 186 187 188 190 189 185 179 175 170 166 168 169 168 169 170 168 169 171 170 171 169 170 179 182 173 166 178 180 175 183 184 181 181 182 183 176 153 91 75 42 21 351 342 344 351 349 354 1 3 10 13 15 16 15 17 17 17 14 14 15 12 10 8 9 8
252 200 89 47 38 55 47 58 50 3 149 134 112 131 156 198 205 191 230 206 100 97 78 96 134 156 167 169 175 180 183 188 190 190 192 196 195 191 186 182 178 174 174 173 171 175 176 175 177 178 177 179 176 175 177 174 171 179 188 185 182 187 182 180 185 189 192 191 192 93 118 86 7 329 336 343 350 348 357 15 20 21 19 19 21 18 19 21 18 13 15 15 10 9 4 5 4
255 147 110 82 66 75 69 79 85 62 76 75 134 180 182 219 320 279 223 172 133 161 151 150 151 159 174 178 181 185 189 192 192 191 193 198 198 195 192 187 183 179 179 176 174 178 180 180 181 180 180 182 179 176 174 171 178 187 188 186 193 193 183 188 196 195 202 213 235 265 269 237 261 309 329 337 340 343 357 15 23 20 20 21 22 18 21 25 20 12 17 15 5 9 360 358 2
70 106 114 109 99 92 91 93 91 82 87 99 210 212 155 322 309 269 214 162 148 160 167 176 174 178 184 185 186 188 193 195 194 194 193 198 197 194 194 191 188 187 183 178 178 179 181 182 180 180 181 180 179 178 176 178 185 190 189 193 200 194 192 201 201 199 209 221 247 265 271 257 225 267 296 304 313 329 354 10 15 13 12 15 20 17 15 21 21 6 11 14 2 5 356 349 357
95 111 103 103 106 98 113 108 106 113 103 120 277 254 201 151 246 248 178 152 158 162 176 182 184 191 190 189 190 194 201 201 199 197 198 202 203 201 201 199 197 194 186 182 182 180 182 184 181 181 182 181 182 182 182 185 188 192 196 201 199 197 204 206 202 208 216 226 247 259 262 261 242 247 251 242 254 293 4 21 20 18 7 3 12 15 10 13 15 -0 1 9 6 0 353 344 348
117 121 102 104 121 116 143 132 131 180 118 136 300 285 235 179 222 237 153 152 169 171 181 185 193 196 194 197 196 200 207 208 204 202 204 206 206 206 207 204 202 196 189 189 185 182 185 185 183 182 185 188 187 185 188 187 186 195 201 201 201 206 209 207 210 217 222 234 244 249 250 247 239 239 239 225 198 185 189 192 20 34 28 357 353 3 11 14 12 360 355 2 4 355 345 341 342
134 157 123 130 161 155 168 144 140 226 128 108 305 278 238 208 216 212 144 155 171 179 189 188 198 198 198 204 202 208 210 210 210 210 211 210 209 211 212 209 204 198 194 193 187 185 186 183 185 187 189 194 191 189 191 189 192 202 203 202 208 211 210 210 215 218 225 235 238 239 239 231 224 224 231 224 188 190 197 185 195 293 335 343 347 -0 14 19 3 357 354 353 353 345 338 337 338
158 223 229 166 206 184 167 150 156 210 143 143 267 277 258 208 194 163 143 163 171 186 199 193 199 199 202 206 206 213 211 212 213 214 214 212 213 212 213 210 204 201 196 193 191 189 187 184 188 190 192 195 193 192 191 192 200 206 203 204 212 212 211 214 214 219 224 229 234 234 229 222 215 213 221 211 182 192 202 195 182 197 300 341 359 3 15 10 337 351 353 345 342 337 332 330 331
184 212 230 221 254 164 148 157 178 194 151 174 244 265 281 202 163 155 158 174 179 195 205 198 200 200 204 207 209 215 213 216 217 216 216 214 214 212 212 210 204 203 198 194 195 193 190 192 194 195 197 196 195 196 193 195 202 206 205 208 215 213 211 214 214 218 220 222 228 229 227 222 217 214 212 198 183 183 189 196 183 205 290 351 352 331 4 337 327 346 340 340 344 333 322 324 325
184 220 240 221 250 151 143 161 197 215 157 187 224 258 276 196 151 165 170 178 193 208 209 203 204 204 207 207 210 216 216 218 219 219 218 214 215 213 211 209 204 204 202 199 197 195 194 200 204 203 202 199 198 200 197 197 201 206 209 212 217 215 212 213 214 218 217 217 222 226 228 221 219 217 206 195 184 181 184 186 195 234 290 37 207 292 9 228 301 335 328 329 337 330 319 318 317
185 234 271 241 248 227 150 155 185 235 166 201 221 254 283 217 146 166 178 185 198 214 217 209 208 207 209 211 211 215 217 218 218 218 217 214 213 211 210 209 206 205 205 203 197 197 196 202 209 208 204 201 200 202 200 201 204 206 211 215 219 218 214 212 214 217 217 218 220 224 227 221 219 216 208 198 184 187 187 182 210 254 291 196 214 251 197 238 297 328 321 315 322 323 315 311 312
184 209 260 260 256 267 244 158 153 196 222 229 229 238 264 261 193 172 182 193 198 214 222 212 211 212 211 214 214 216 217 218 218 216 213 212 210 209 210 210 209 207 207 206 201 200 200 201 208 208 203 201 201 202 204 206 207 207 209 215 219 218 215 214 217 219 220 220 215 220 225 220 218 217 213 204 188 195 195 189 216 256 277 209 220 225 227 254 284 306 315 304 311 315 309 310 308
342 316 281 284 255 258 265 180 128 194 223 243 246 244 256 263 252 203 186 192 202 213 221 216 215 214 213 215 217 218 218 222 222 216 211 209 208 207 208 209 208 206 206 207 203 202 203 202 204 206 203 201 202 202 205 207 206 206 207 211 217 217 214 215 219 220 218 213 208 217 222 216 219 221 216 208 197 197 203 206 220 245 239 203 214 218 227 237 259 301 312 301 305 304 297 301 302
334 329 304 305 290 274 283 96 103 224 254 249 250 256 263 267 266 245 198 189 207 217 220 223 219 216 216 216 219 219 220 225 222 217 213 208 206 205 205 205 204 205 206 205 204 203 204 203 202 204 204 202 201 201 203 204 202 203 204 207 212 213 211 216 221 218 212 207 209 220 221 215 221 223 218 215 206 198 200 208 221 241 232 204 212 212 212 221 243 283 293 291 296 295 292 282 290
310 300 287 285 283 286 79 100 109 114 282 264 257 264 269 271 270 264 227 193 208 220 220 224 221 219 219 217 220 219 222 227 220 215 214 209 206 203 201 202 202 205 207 205 206 205 204 204 202 203 204 204 202 201 201 202 201 202 203 206 209 210 210 213 218 216 209 207 214 223 221 218 223 223 221 219 215 209 203 205 219 232 223 206 207 204 212 231 248 264 273 279 274 273 286 272 280
287 282 284 279 276 291 70 91 116 150 268 275 280 279 273 273 271 267 249 213 211 216 218 222 222 221 222 222 223 223 224 225 216 212 211 208 205 202 200 201 201 204 206 205 206 207 206 207 207 205 205 206 206 204 203 204 206 207 208 209 210 211 210 209 214 214 210 211 219 225 222 221 224 224 223 220 218 216 206 203 212 215 209 202 202 208 220 235 245 245 256 275 265 258 270 262 264
266 267 277 284 310 325 50 104 126 188 244 284 297 295 281 277 273 268 256 236 225 217 220 224 224 224 224 223 224 224 225 220 214 211 207 206 206 202 200 202 205 207 208 207 207 208 208 209 210 208 206 207 208 207 206 207 208 210 212 213 213 214 213 212 213 211 211 216 222 224 223 223 225 223 222 221 218 217 209 202 202 203 205 201 200 209 216 217 220 220 229 253 268 269 270 253 234
250 282 283 292 359 341 288 121 152 234 243 288 303 295 281 275 268 263 253 243 237 225 229 233 231 232 230 228 225 222 223 220 216 213 207 207 207 204 204 206 207 207 209 209 209 209 209 210 210 209 208 208 208 208 208 209 209 211 213 215 215 215 214 209 208 205 208 217 222 224 224 224 225 223 221 221 219 217 211 202 197 198 203 204 201 203 205 204 205 208 215 224 247 269 276 261 236
206 238 295 305 346 329 295 315 307 265 233 265 294 289 276 265 258 257 231 233 241 227 234 239 235 239 240 238 234 228 227 225 220 217 211 208 209 208 207 208 206 206 209 211 209 209 209 211 211 210 209 210 210 209 209 208 207 207 208 209 210 211 210 204 202 201 203 213 220 223 226 225 224 223 221 221 221 217 212 206 199 196 200 204 201 200 204 204 202 203 208 216 226 246 268 274 264
209 152 340 326 326 313 296 304 307 289 240 199 293 307 299 332 307 283 141 163 234 216 226 239 235 234 237 239 238 234 232 230 226 224 217 212 213 212 209 209 207 209 213 212 211 210 210 212 212 210 210 211 212 210 208 207 206 204 202 202 205 208 209 208 206 205 205 215 222 223 225 225 224 222 221 220 220 218 214 210 205 199 200 203 201 200 201 200 201 203 204 211 218 227 247 264 269
279 66 9 330 300 294 292 298 296 297 308 183 192 294 290 301 307 295 142 212 238 213 222 236 237 229 228 232 234 234 232 230 229 228 224 219 217 215 213 211 210 214 216 213 211 212 212 213 212 211 213 213 213 211 208 208 208 207 206 208 210 211 214 215 213 212 213 219 224 223 222 225 224 221 219 220 218 217 216 214 211 206 202 203 201 199 200 199 201 203 201 205 213 217 227 244 259
308 31 327 297 278 277 283 291 270 283 314 281 179 241 273 290 295 172 148 263 253 228 225 229 230 224 224 229 229 231 231 229 228 226 225 224 221 218 217 215 214 217 217 212 211 212 213 213 212 213 215 216 215 214 212 212 212 210 210 213 216 217 219 221 217 213 213 215 218 218 218 221 223 221 219 219 217 216 215 214 212 207 203 203 202 198 200 200 198 199 200 203 210 214 220 232 245
0 25 289 277 272 274 270 273 267 279 310 282 168 192 264 279 281 165 169 251 260 272 268 235 227 222 222 228 228 229 230 228 228 229 228 225 224 224 221 220 219 218 216 212 212 213 212 212 213 213 216 218 218 218 217 218 218 215 213 215 218 221 222 222 220 214 211 208 208 209 209 213 218 219 218 217 216 217 216 213 209 208 206 202 202 201 199 199 198 198 199 202 206 211 216 222 233
9 340 265 254 249 258 245 250 272 274 278 269 137 151 281 295 295 222 173 242 311 339 330 309 261 241 230 229 229 231 230 227 229 232 233 231 229 229 227 226 224 220 216 214 213 212 211 211 212 213 218 220 219 219 220 222 222 217 215 217 218 220 219 219 219 216 211 207 204 203 202 204 208 213 215 214 214 216 216 213 209 209 208 202 202 202 198 199 200 201 202 203 204 207 212 217 225
321 266 260 252 229 228 236 242 264 262 251 180 104 112 291 306 299 283 135 252 337 327 312 311 303 283 256 238 232 232 229 227 228 231 236 237 236 234 232 231 228 223 218 215 213 212 211 211 212 215 221 221 218 218 221 225 223 218 218 219 218 219 217 214 216 216 212 207 205 203 201 201 201 206 211 210 211 214 213 212 210 209 207 203 202 200 197 198 200 202 204 205 207 209 212 216 222
279 266 275 282 244 214 230 212 205 260 280 108 108 180 254 264 272 288 318 281 239 263 286 301 305 302 294 272 255 240 231 231 233 236 238 239 239 234 231 232 231 227 222 217 214 212 211 212 213 216 221 221 218 217 221 225 223 220 221 220 219 219 216 214 215 216 213 208 207 205 201 201 201 203 206 205 208 210 208 206 207 207 205 203 202 199 198 198 198 201 202 204 208 210 212 214 219
249 263 279 298 294 264 264 250 245 277 333 119 131 347 261 252 257 269 280 280 266 234 251 281 293 296 293 285 281 263 236 240 243 245 247 241 238 233 229 231 229 226 224 220 216 213 212 215 216 217 222 222 219 216 219 223 222 223 224 222 221 220 218 217 217 217 216 213 209 206 202 201 201 200 201 202 207 209 207 205 203 203 203 203 202 200 199 197 197 199 201 203 206 208 210 212 216
224 271 306 306 317 319 296 297 294 291 328 135 136 52 268 262 267 257 258 270 278 234 237 264 275 278 282 282 284 274 250 251 253 250 252 246 238 233 229 229 227 224 224 223 219 216 215 217 219 220 225 225 220 217 219 221 222 225 226 224 221 220 219 220 219 219 219 216 213 209 206 204 203 203 203 205 208 208 209 209 205 202 203 203 202 201 199 197 197 199 201 204 206 208 210 211 214
226 331 322 291 300 304 293 310 309 304 315 291 149 188 254 265 302 261 246 262 271 251 246 253 255 259 271 277 272 263 252 248 246 244 250 249 243 238 232 230 227 225 225 224 223 221 218 220 221 222 227 227 222 220 220 221 223 225 225 223 222 221 221 221 221 221 220 218 216 213 210 208 207 206 206 208 209 208 209 208 206 206 205 201 200 199 197 196 197 199 202 204 207 209 210 211 214
177 68 278 262 306 300 285 304 310 305 310 288 204 224 242 260 285 279 272 271 259 250 229 221 240 240 244 261 260 255 252 239 228 233 243 247 244 238 234 233 231 229 228 226 225 223 221 223 224 224 227 228 225 223 222 222 224 224 223 223 223 222 222 222 222 222 220 220 219 216 213 211 209 209 207 206 208 209 210 207 206 206 202 198 198 196 196 195 196 199 202 204 207 209 210 211 213
151 200 240 92 22 319 283 273 265 254 275 268 246 264 271 284 285 270 229 229 213 193 191 200 222 223 219 243 252 251 253 239 225 231 242 247 244 238 235 234 234 232 230 228 227 225 223 225 226 226 229 229 227 225 224 225 225 224 224 223 223 222 222 222 222 222 221 221 221 219 218 214 211 209 205 204 204 207 210 207 204 202 197 195 196 195 195 195 195 200 202 204 206 207 209 211 212
249 246 0 63 68 307 276 270 283 260 264 272 271 278 288 300 295 217 162 191 191 184 200 210 219 227 234 247 254 263 266 251 233 237 242 243 241 239 236 234 235 236 235 234 233 229 227 227 227 229 230 230 228 227 227 226 225 225 225 224 223 223 223 223 224 224 223 222 221 221 220 216 213 208 203 202 201 204 207 205 201 198 194 194 194 193 194 195 196 201 203 205 206 206 209 211 212
273 310 338 308 271 239 211 246 291 285 277 279 272 280 283 261 252 255 231 219 209 204 214 225 239 252 262 269 271 283 286 273 260 261 262 256 252 251 243 237 238 239 239 239 238 235 232 231 231 232 233 233 232 230 229 228 225 225 226 225 224 224 223 224 225 224 223 223 222 221 219 217 214 207 202 202 202 202 202 199 197 195 191 191 192 192 193 195 198 201 203 206 206 206 209 211 212
236 290 249 229 289 280 257 269 294 277 280 287 282 286 280 250 241 264 265 243 234 254 253 249 260 272 280 287 287 291 292 285 281 284 285 283 281 279 271 260 252 246 245 244 241 238 235 234 234 235 236 236 236 234 232 229 227 227 227 226 225 224 223 223 223 222 222 223 223 221 219 217 212 205 201 203 204 203 202 198 193 191 190 191 191 192 194 195 199 203 205 206 206 206 209 212 213
172 208 203 193 195 257 276 265 250 254 270 282 285 282 274 267 258 262 267 269 270 277 277 264 268 280 283 288 292 293 291 286 287 289 288 287 286 284 281 275 267 256 252 248 242 240 239 238 237 237 237 237 237 235 233 231 229 229 228 227 226 224 223 223 223 222 221 222 222 220 218 214 208 205 205 205 205 203 203 201 196 195 195 194 192 191 194 196 200 204 207 207 206 207 210 212 213
186 202 198 200 190 180 247 248 209 222 254 265 281 284 277 274 266 256 264 275 273 264 263 264 269 278 281 283 286 289 287 284 287 287 285 284 281 278 277 275 269 261 255 251 245 242 241 241 240 240 239 238 238 237 235 233 232 231 230 229 228 226 225 223 222 221 221 221 220 218 216 210 206 206 208 208 206 204 204 204 203 201 198 197 196 194 194 197 201 204 206 207 207 207 210 213 214